STARLINK-3773

operational
NORAD ID: 52291 Int'l Des: 2022-041 Owner: SPXS Country: US Constellation: starlink
LEOCIRCULAR

关于 STARLINK-3773

正在加载描述...

实时位置

正在加载3D地球...

即将过境

高度历史

Altitude vs Time

uPlot chart will show altitude changes over time

两行轨道根数

1 52291U 22041AG 25251.73167285 .13221049 12591-4 18000-3 0 9998
2 52291 53.1638 78.6513 0007632 269.3655 90.6522 16.48667423188672
Epoch: Sep 8, 2025 • Age: 258 hours

当前状态

Position data unavailable
发射日期 Apr 21, 2022
运行时间 3.4 years
衰减日期 Sep 8, 2025
类型 internet

技术详情

分类 Payload
质量 297.00 kg
干质量 275.00 kg
总质量 297.00 kg
长度 0.20 m
直径 2.80 m
跨度 9.00 m
形状 Box + pan
制造商 SPXS
平台类型 Starlink
阶段状态 Reentered
所有者/国家 SPXS/US

大型星座

Loading constellations...